Regional Weather Roundup
Issued by NWS Grand Forks, ND

Home | Current Version | Previous Version | Graphics & Text | Print | Product List | Glossary On
Versions: 1 2 3 4 5 6 7 8 9 10 11 12 13 14 15 16 17 18 19 20 21 22 23 24 25 26 27 28 29 30 31 32 33 34 35 36 37 38 39 40 41 42 43 44 45 46 47 48 49 50
000
ASUS43 KFGF 010231
RWRFGF
PRAIRIE TO PINES  WEATHER ROUNDUP
NATIONAL WEATHER SERVICE EASTERN NORTH DAKOTA/GRAND FORKS ND
900 PM CDT SUN AUG 31 2014

 **SATELLITE DATA USED TO AUGMENT SKY COVER AT AUTOMATED STATIONS**
 *****  WEATHER ACROSS EASTERN NORTH DAKOTA  *****

CITY           SKY/WX    TMP DP  RH WIND       PRES   REMARKS
GRAND FORKS    PTCLDY    63  57  81 W8        29.59S
GRAND FRKS AFB PTCLDY    65  58  78 NW8       29.61S
GRAND FRKS NWS   N/A     61 N/A N/A NW10        N/A
DEVILS LAKE    CLEAR     61  52  72 NW7       29.64S
FARGO          PTCLDY    65  60  84 W6        29.61R
WAHPETON ARPT  PTCLDY    63  59  88 W3        29.62S
$$

 ***** WEATHER ACROSS CENTRAL AND WESTERN NORTH DAKOTA  *****

CITY           SKY/WX    TMP DP  RH WIND       PRES   REMARKS
BISMARCK       CLOUDY    62  59  90 SE3       29.71S
MINOT          MOCLDY    63  52  67 W22G30    29.73R THUNDER
JAMESTOWN      PTCLDY    63  57  81 W6        29.65S
MINOT AFB      PTCLDY    59  58  96 W18       29.71R
GARRISON         N/A     59  53  80 NW7       29.72R
WILLISTON      MOCLDY    59  54  83 N6        29.75S
DICKINSON      LGT RAIN  61  52  72 SW15      29.74R
HETTINGER      LGT RAIN  56  51  84 W15       29.81R
$$

 *****  OTHER AIRPORT OBSERVATIONS IN OUR AREA  *****

CITY           SKY/WX    TMP DP  RH WIND       PRES   REMARKS
WALHALLA         N/A     61  61 100 NW8       29.63R
GRAFTON AIRPOR FAIR      63  61  94 N6        29.60S
VALLEY CITY AR FAIR      61  61 100 W7        29.64S
CANDO          FAIR      57  54  88 NW8       29.67S
CAVALIER APRT  FAIR      59  57  94 NW6       29.62R
GWINNER        PTCLDY    66  66 100 NW8       29.63F
SHEYENNE NWR     N/A     65  62  91 NW5       29.95S
ROLLA          FAIR      54  54 100 NW7       29.69S
 ***** THE ABOVE OBSERVATIONS ARE NON NWS ARE NOT QUALITY
       CONTROLLED AND MAY MIS-REPORT RAIN FOR SNOW...
$$

  *****  WEATHER ACROSS NORTHERN MINNESOTA  *****

CITY           SKY/WX    TMP DP  RH WIND       PRES   REMARKS
FLAG ISLAND    CLOUDY    63  59  88 W12       29.53S
WARROAD        MOCLDY    63  57  82 W8        29.58R
ROSEAU         MOCLDY    63  57  82 W7        29.58S
HALLOCK        MOCLDY    61  57  88 NW6       29.59S
THF RVR FALLS  MOCLDY    63  57  82 NW8       29.60S
BAUDETTE       MOCLDY    63  60  90 W3        29.57R
WASKISH        MOCLDY    66  63  88 CALM      29.59R
CROOKSTON      MOCLDY    61  57  88 NW7       29.60F
$$
  *****  WEATHER ACROSS CENTRAL AND WEST MINNESOTA  *****

CITY           SKY/WX    TMP DP  RH WIND       PRES   REMARKS
FOSSTON        PTCLDY    57  55  94 CALM      29.60S
BEMIDJI        PTCLDY    63  61  93 W5        29.60F
PARK RAPIDS    MOCLDY    65  63  93 CALM      29.60F
ELBOW LAKE     CLOUDY    65  64  95 CALM      29.62R
WADENA         CLOUDY    66  63  88 CALM      29.63R
DETROIT LAKES  PTCLDY    64  63  94 CALM      29.63F
MOORHEAD       PTCLDY    64  64 100 NW6       29.61F
FERGUS FALLS   MOCLDY    64  63  94 CALM      29.63S
MORRIS MN      CLOUDY    66  64  94 CALM      29.62R
STAPLES        CLOUDY    66  63  88 CALM      29.62S
$$
  *****  WEATHER ELSEWHERE ACROSS MINNESOTA  *****

CITY           SKY/WX    TMP DP  RH WIND       PRES   REMARKS
DULUTH         MOCLDY    64  60  87 SE8       29.64R
INTRNTL FALLS  MOCLDY    63  62  97 VRB3      29.58R
ELY            MOCLDY    63  57  82 SE6       29.61F
CLOQUET        LGT RAIN  64  61  88 SE3       29.61F
WHEATON        MOCLDY    63  61  94 SW3       29.64R
BRAINERD       CLOUDY    65  63  93 CALM      29.62F
HIBBING        CLOUDY    64  62  93 CALM      29.62R
ALEXANDRIA     CLOUDY    67  62  84 W6        29.65S
SAINT CLOUD    LGT RAIN  66  63  90 S3        29.64R
MINNEAPOLIS    LGT RAIN  75  65  70 SW24G30   29.69R
$$

  *****  WEATHER ACROSS SOUTH DAKOTA  *****

CITY           SKY/WX    TMP DP  RH WIND       PRES   REMARKS
SIOUX FALLS    CLOUDY    64  60  87 N3        29.64R
BROOKINGS      NOT AVBL
WATERTOWN      CLOUDY    61  57  87 W6        29.65F
HURON          PTCLDY    60  59  96 W5        29.64F
SISSETON         N/A     64  61  90 W3        29.61F
ABERDEEN       PTCLDY    60  60 100 SW5       29.64F
MITCHELL       CLEAR     64  61  90 NW5       29.67R
PIERRE         LGT RAIN  65  59  81 NW8       29.69R
MOBRIDGE       MOCLDY    63  60  90 N6        29.68S
RAPID CITY     MOCLDY    54  53  97 NW5       29.83S
$$

  *****  SOME WEATHER IN NEARBY STATES *****

CITY           SKY/WX    TMP DP  RH WIND       PRES   REMARKS
GLASGOW MT     CLEAR     64  48  56 SW5       29.74S
GREAT FALLS MT CLOUDY    61  39  44 W12       29.89R
CHEYENNE WY    PTCLDY    64  37  36 NW10      29.99R
SCOTTSBLUFF NE CLEAR     58  48  69 W7        29.90R
OMAHA NE       TSTM      71  67  87 CALM      29.72R
DES MOINES IA  TSTM      80  70  71 S17       29.68R
DAVENPORT IA   CLEAR     78  68  71 S12       29.81R
CHICAGO IL     PTCLDY    76  68  76 S7        29.86F
EAU CLAIRE WI  CLOUDY    78  68  71 S18G26    29.66R
LA CROSSE WI   CLOUDY    70  66  87 SE6       29.71F
$$

  *****  SOME NATIONAL WEATHER *****

CITY           SKY/WX    TMP DP  RH WIND       PRES   REMARKS
LA GUARDIA NY  CLOUDY    79  73  82 SW6       29.99F
RALEIGH NC     MOCLDY    81  70  69 S5        30.09R
ATLANTA GA     MOCLDY    81  71  71 SE5       30.12R
NEW ORLEANS LA MOCLDY    83  75  77 SE7       30.04R HX  90
OKLAHOMA CITY  CLEAR     87  65  47 S21G31    29.77S
ALBUQUERQUE NM PTCLDY    86  35  16 W9        29.99R
SALT LAKE CITY CLEAR     70  32  24 N7        29.99S
LOS ANGELES CA PTCLDY    74  67  78 W6        29.77F
BOISE ID       CLEAR     71  39  31 N9        29.96S
SEATTLE WA     MOCLDY    68  48  48 W3        30.04S
$$

*** WEATHER ACROSS MANITOBA...SASKATCHEWAN AND ONTARIO ***
                ***ONTARIO***

CITY           SKY/WX    TMP DP  RH WIND       PRES   REMARKS
GERALDTON      CLOUDY    59  50  72 CALM      29.80S
THUNDER BAY    CLOUDY    59  57  94 E14       29.71F
SIOUX LOOKOUT  CLOUDY    63  57  82 S8G17     29.55F
TORONTO        PTCLDY    75  64  69 NW6       29.94S
BIG TROUT LK   CLOUDY    61  54  77 S7        29.67F
PICKLE LAKE    CLOUDY    57  54  88 SE15G22   29.63F
DRYDEN         CLOUDY    63  61  94 S13G20    29.54R
KENORA         CLOUDY    63  63 100 SW9       29.53R FOG
$$
                *** MANITOBA***

CITY           SKY/WX    TMP DP  RH WIND       PRES   REMARKS
BRANDON        MOCLDY    61  55  82 CALM      29.67R
DAUPHIN        CLEAR     57  57 100 S3        29.64R
ISLAND LAKE    MOCLDY    59  59 100 CALM      29.59F
PILOT MOUND      N/A     57  54  88 NW8         N/A
THE PAS        PTCLDY    57  52  82 S2        29.58S
THOMPSON       PTCLDY    52  52 100 CALM      29.54S
WINNIPEG       MOCLDY    61  59  94 NW8       29.60R
LYNN LAKE      MOCLDY    57  50  77 MISG      29.54R
CHURCHILL      LGT RAIN  50  48  93 E16G23    29.60F
GILLAM         CLOUDY    57  57 100 S8        29.56
$$
                ***SASKATCHEWAN***

CITY           SKY/WX    TMP DP  RH WIND       PRES   REMARKS
ESTEVAN        MOCLDY    57  52  82 SW6       29.73R
KINDERSLEY     PTCLDY    59  39  47 NW5       29.76R
LLOYDMINSTER   MOCLDY    57  39  51 W10       29.72S
PRINCE ALBERT  PTCLDY    59  50  72 W5        29.65S
REGINA         MOCLDY    57  48  72 N17G24    29.73
YORKTON        CLEAR     59  52  77 W7        29.67S
N. BATTLEFORD  CLEAR     59  41  51 W8        29.72R
LA RONGE       MOCLDY    59  48  67 W6        29.61R
SASKATOON      PTCLDY    57  50  77 SW7       29.72R
SWIFT CURRENT  MOCLDY    55  46  71 NW9       29.77R
$$
NOTE: THESE ARE AUTOMATED STATIONS WITH LIMITED QUALITY CONTROL
      "FAIR" INDICATES FEW OR NO CLOUDS BELOW 12,000 FEET WITH NO
      SIGNIFICANT WEATHER AND/OR OBSTRUCTIONS TO VISIBILITY.
      SKY/WX - SKY CONDITION AND SIGNIFICANT WEATHER.
      TMP - AIR TEMPERATURE.    DP   - DEWPOINT TEMPERATURE.
      RH  - RELATIVE HUMIDITY.  PRES - PRESSURE.
      HX  - HEAT INDEX.         WCI  - WIND CHILL INDEX.
$


USA.gov is the U.S. government's official web portal to all federal, state and local government web resources and services.